Other Public Products
Issued by NWS Charleston, SC

Current Version | Previous Version | Text Only | Print | Product List | Glossary On
Versions: 1 2 3 4 5 6 7 8 9 10 11 12 13 14 15 16 17 18 19 20 21 22 23 24 25 26 27 28 29 30 31 32 33 34 35 36 37 38 39 40 41 42 43 44 45 46 47 48 49 50
000 FPUS82 KCHS 192112 OPUCHS TEST...KCHS/KSAV Gateway Observations...TEST National Weather Service Charleston SC 500 PM EDT WED JUL 19 2017 NOTE: "fair" indicates few or no clouds below 12,000 feet with no significant weather and/or obstructions to visibility. SCZ050-WAZ558-NCZ071-TXZ119-213-PAZ071-DCZ001-FLZ074-172-MI076- NYZ176-178-MAZ016-IL014-TNZ027-NJZ106-GAZ044-MD014-192200- ...Gateway Observations for Charleston International... CITY SKY/WX TMP DP RH WIND PRES REMARKS Chas Airport TSTM 80 66 62 E10G28 30.07R Seattle MOSUNNY 71 49 45 W9 30.08F Charlotte PTSUNNY 94 65 38 N5 30.07S HX 96 Dallas DFW MOSUNNY 96 69 41 SE9 30.05F HX 102 Dallas Love MOSUNNY 97 70 41 SE12G17 30.06F HX 103 Philladelphia MOSUNNY 94 68 42 SW12 29.98F HX 98 Wash National PTSUNNY 96 65 35 VRB5 30.00F HX 98 Baltimore MOSUNNY 91 72 53 SE12 30.00S HX 98 Miami PTSUNNY 88 76 67 CALM 30.07F HX 99 Detroit PTSUNNY 89 73 59 VRB5 30.03F HX 97 Newark MOSUNNY 94 63 35 W15 29.95F HX 95 Laguardia MOSUNNY 93 67 42 NW14 29.95F HX 96 J F K MOSUNNY 86 75 69 S18 29.97F HX 95 Boston Logan MOSUNNY 90 66 45 W9 29.90F HX 92 Ft. Lauderdale PTSUNNY 86 77 74 SE12 30.05F HX 97 Chicago O`Hare MOSUNNY 85 70 60 NE13 30.08S Chicago Midway MOSUNNY 84 69 60 E12 30.08S Houston Bush MOSUNNY 92 74 55 SE12 30.08F HX 101 Houston Hobby MOSUNNY 93 73 52 E5 30.07F THUNDER HX 102 Nashville MOSUNNY 94 70 45 W6 30.10F HX 100 Atlanta MOSUNNY 92 67 43 NW10G18 30.09F HX 95 $$ GAZ044-118-TXZ119-213-NCZ071-DCZ001-MDZ014-506-PAZ021-071-NJZ106- NYZ176-178-MAZ106-OHZ011-021-055-MIZ076-KYZ091-ILZ014-INZ047- MNZ060-ONZ431-192200- ...Gateway Observations for Savannah International... CITY SKY/WX TMP DP RH WIND PRES REMARKS Savannah Arpt PTSUNNY 90 73 57 SW3 30.06S HX 98 Atlanta MOSUNNY 92 67 43 NW10G18 30.09F HX 95 Charlotte PTSUNNY 94 65 38 N5 30.07S HX 96 Dallas DFW MOSUNNY 96 69 41 SE9 30.05F HX 102 Houston Bush MOSUNNY 92 74 55 SE12 30.08F HX 101 Wash National PTSUNNY 96 65 35 VRB5 30.00F HX 98 Wash Dulles MOSUNNY 92 68 45 CALM 30.01F HX 96 Baltimore MOSUNNY 91 72 53 SE12 30.00S HX 98 Philadelphia MOSUNNY 94 68 42 SW12 29.98F HX 98 Newark MOSUNNY 94 63 35 W15 29.95F HX 95 Laguardia MOSUNNY 93 67 42 NW14 29.95F HX 96 J F K MOSUNNY 86 75 69 S18 29.97F HX 95 Boston MOSUNNY 90 66 45 W9 29.90F HX 92 Pittsburg MOSUNNY 89 68 49 W10 30.06F HX 93 Akron MOSUNNY 90 68 48 W7 30.07F HX 94 Cleveland MOSUNNY 90 62 39 W9 30.08R HX 90 Cincinnati MOSUNNY 88 68 51 W5 30.09F HX 91 Columbus SUNNY 88 66 48 SW6 30.06F HX 90 Detroit PTSUNNY 89 73 59 VRB5 30.03F HX 97 Chicago O`Hare MOSUNNY 85 70 60 NE13 30.08S Minneapolis HVY RAIN 67 63 87 SE22 30.01F FOG Indianapolis MOSUNNY 86 70 58 SW9 30.10S HX 90 Toronto Canada MOSUNNY 90 68 48 W16 29.96F HX 93 $$

USA.gov is the U.S. government's official web portal to all federal, state and local government web resources and services.